Date,TemperatureHighF,TemperatureAvgF,TemperatureLowF,DewpointHighF,DewpointAvgF,DewpointLowF,HumidityHigh,HumidityAvg,HumidityLow,PressureMaxIn,PressureMinIn,WindSpeedMaxMPH,WindSpeedAvgMPH,GustSpeedMaxMPH,PrecipitationSumIn
2013-1-1,27,26,26,20,18,15,78,71,62,0.00,40.00,8,7,12,0.00
2013-1-2,35,32,30,7,4,1,33,31,28,0.00,40.00,35,28,51,0.00
2013-1-4,31,28,26,26,22,17,96,78,57,0.00,40.00,24,14,35,0.00
2013-1-5,32,27,20,28,24,16,99,89,53,0.00,40.00,35,21,48,0.00
2013-1-6,23,21,18,23,20,17,99,97,95,0.00,40.00,27,13,37,0.00
2013-1-7,24,24,24,24,24,24,99,99,99,0.00,40.00,31,31,41,0.00
2013-1-9,14,13,12,13,12,11,96,95,95,0.00,40.00,17,15,25,0.00
2013-1-10,14,12,9,13,11,7,96,95,93,0.00,40.00,25,19,35,0.00
2013-1-11,13,8,5,12,6,3,95,93,92,0.00,40.00,20,10,29,0.00
2013-1-12,8,8,7,6,6,5,93,93,93,0.00,40.00,20,15,24,0.00
2013-1-13,17,15,13,12,6,3,90,67,58,0.00,40.00,23,15,29,0.00
2013-1-14,31,21,16,23,18,12,99,88,57,0.00,40.00,35,27,45,0.00
2013-1-15,39,34,31,16,7,-2,49,31,23,0.00,40.00,35,25,44,0.00
2013-1-16,40,37,33,13,5,-2,35,26,21,0.00,40.00,25,21,35,0.00
2013-1-17,44,39,36,17,6,-8,35,26,12,0.00,40.00,18,14,28,0.00
2013-1-18,40,38,36,3,-3,-7,22,17,14,0.00,40.00,28,22,46,0.00
2013-1-19,44,40,38,9,2,-4,24,20,15,0.00,40.00,23,18,32,0.00
2013-1-20,46,42,37,15,3,-8,32,20,12,0.00,40.00,16,9,24,0.00
2013-1-21,45,43,39,9,-8,-15,24,11,7,0.00,40.00,13,7,27,0.00
2013-1-22,43,40,37,-1,-6,-16,19,14,8,0.00,40.00,33,17,52,0.00
2013-1-23,38,30,20,27,17,1,99,67,21,0.00,40.00,29,21,65,0.00
2013-1-24,29,24,17,27,11,-10,100,67,18,0.00,40.00,37,24,58,0.00
2013-1-25,32,27,19,30,24,11,100,90,69,0.00,40.00,31,13,54,0.00
2013-1-26,24,19,17,22,17,9,97,91,64,0.00,40.00,27,15,43,0.00
2013-1-27,20,18,16,19,17,15,97,95,93,0.00,40.00,20,13,30,0.00
2013-1-28,21,19,16,21,18,15,98,96,95,0.00,40.00,35,26,61,0.00
2013-1-29,26,22,20,26,22,20,100,98,98,0.00,40.00,37,34,58,0.00
2013-1-31,30,27,23,30,27,23,100,100,98,0.00,40.00,22,17,41,0.00
2013-2-1,30,26,22,29,26,21,99,98,96,0.00,40.00,27,15,40,0.00
2013-2-2,36,32,29,33,28,19,97,85,63,0.00,40.00,28,20,47,0.00
2013-2-3,32,28,25,27,17,5,100,67,31,0.00,40.00,23,18,32,0.00
2013-2-4,34,27,24,29,24,21,99,90,65,0.00,40.00,35,14,47,0.00
2013-2-5,26,24,20,24,21,16,99,88,66,0.00,40.00,37,17,63,0.00
2013-2-6,24,22,21,24,22,20,99,98,95,0.00,40.00,36,17,66,0.00
2013-2-7,24,19,14,24,19,13,99,97,95,0.00,40.00,36,12,55,0.00
2013-2-8,21,16,13,20,15,12,96,95,94,0.00,40.00,23,16,31,0.00
2013-2-9,22,20,16,21,19,15,97,96,95,0.00,40.00,25,22,35,0.00
2013-2-10,31,26,21,22,19,15,97,75,53,0.00,40.00,23,19,32,0.00
2013-2-11,28,24,21,26,18,4,100,81,39,0.00,40.00,27,23,39,0.00
2013-2-12,27,24,20,27,22,13,100,90,67,0.00,40.00,41,28,58,0.00
2013-2-13,27,23,20,26,20,13,100,88,67,0.00,40.00,32,23,56,0.00
2013-2-14,30,27,21,30,27,21,100,100,97,0.00,40.00,25,20,36,0.00
2013-2-15,43,36,30,32,28,23,100,75,57,0.00,40.00,24,12,40,0.00
2013-2-16,34,25,17,29,23,16,99,93,69,0.00,40.00,27,14,46,0.00
2013-2-17,23,18,15,22,16,14,97,94,91,0.00,40.00,17,8,30,0.00
2013-2-18,23,19,15,19,13,-1,96,78,38,0.00,40.00,27,13,36,0.00
2013-2-19,20,17,14,18,16,13,98,94,88,0.00,40.00,20,13,30,0.00
2013-2-20,22,17,14,21,16,12,97,94,88,0.00,40.00,25,11,32,0.00
2013-2-21,23,19,16,22,18,15,98,97,95,0.00,40.00,27,16,44,0.00
2013-2-22,25,21,13,25,21,12,99,98,95,0.00,40.00,33,24,63,0.00
2013-2-23,23,17,13,23,17,12,98,96,95,0.00,40.00,27,19,50,0.00
2013-2-24,31,21,14,31,20,13,100,98,95,0.00,40.00,35,17,55,0.00
2013-2-25,22,18,13,22,17,12,98,96,94,0.00,40.00,33,24,55,0.00
2013-2-26,29,17,12,29,16,10,98,95,93,0.00,40.00,31,16,50,0.00
2013-2-27,33,23,17,33,22,16,100,97,95,0.00,40.00,20,11,32,0.00
2013-2-28,33,30,22,33,30,22,100,100,98,0.00,40.00,28,16,39,0.00
2013-3-1,37,32,27,35,32,27,100,98,93,0.00,40.00,17,10,28,0.00
2013-3-2,36,30,16,28,22,15,100,75,42,0.00,40.00,33,20,54,0.00
2013-3-3,17,14,12,16,13,10,97,95,93,0.00,40.00,29,20,50,0.00
2013-3-4,28,19,13,15,11,5,88,70,54,0.00,40.00,31,22,47,0.00
2013-3-5,27,23,18,23,18,10,99,84,54,0.00,40.00,36,27,56,0.00
2013-3-6,31,23,20,27,22,19,98,94,85,0.00,40.00,33,18,43,0.00
2013-3-7,32,24,19,28,21,18,97,90,72,0.00,40.00,18,9,24,0.00
2013-3-8,30,23,19,24,14,6,98,69,52,0.00,40.00,20,8,22,0.00
2013-3-9,34,27,22,24,4,-16,91,41,16,0.00,40.00,23,18,32,0.00
2013-3-10,30,28,26,30,17,-3,100,72,23,0.00,40.00,27,19,37,0.00
2013-3-11,33,27,19,31,26,18,100,95,82,0.00,40.00,18,11,29,0.00
2013-3-12,34,32,30,34,32,30,100,99,95,0.00,40.00,21,12,35,0.00
2013-3-13,43,35,30,38,34,30,100,96,79,0.00,40.00,21,12,32,0.00
2013-3-14,39,36,28,34,26,12,100,70,35,0.00,40.00,35,18,59,0.00
2013-3-15,34,30,27,33,30,27,100,98,90,0.00,40.00,21,11,32,0.00
2013-3-16,28,24,15,27,23,14,100,97,92,0.00,40.00,27,13,60,0.00
2013-3-17,18,16,13,17,14,12,97,96,95,0.00,40.00,36,24,56,0.00
2013-3-18,25,18,13,25,18,12,99,97,94,0.00,40.00,25,18,39,0.00
2013-3-19,29,24,17,28,23,16,100,97,95,0.00,40.00,39,27,66,0.00
2013-3-20,30,24,13,30,24,12,100,99,95,0.00,40.00,39,27,73,0.00
2013-3-21,21,15,12,20,14,11,96,95,94,0.00,40.00,30,22,58,0.00
2013-3-22,18,11,7,17,9,5,96,93,92,0.00,40.00,21,14,35,0.00
2013-3-24,34,22,14,33,21,12,100,96,93,0.00,40.00,21,14,30,0.00
2013-3-25,36,28,19,34,26,18,99,95,90,0.00,40.00,18,11,24,0.00
2013-3-26,36,31,26,33,30,25,100,96,89,0.00,40.00,12,6,16,0.00
2013-3-27,37,31,27,33,29,25,97,93,85,0.00,40.00,22,14,30,0.00
2013-3-28,37,31,27,32,29,25,99,92,76,0.00,40.00,20,9,30,0.00
2013-3-29,40,33,28,34,29,26,97,86,67,0.00,40.00,13,5,18,0.00
2013-3-30,54,39,30,33,20,-100,83,59,26,0.00,40.00,15,9,23,0.00
2013-3-31,56,44,37,30,22,-17,63,45,8,0.00,40.00,16,7,21,0.00
2013-4-1,45,39,32,38,33,23,100,80,47,0.00,40.00,20,10,23,0.00
2013-4-2,39,33,30,36,32,30,100,97,87,0.00,40.00,20,14,28,0.00
2013-4-3,46,40,30,33,28,14,100,62,35,0.00,40.00,29,9,41,0.00
2013-4-4,40,35,31,35,30,12,100,83,35,0.00,40.00,48,32,65,0.00
2013-4-5,34,31,28,33,30,28,100,99,92,0.00,40.00,33,20,58,0.00
2013-4-6,30,27,24,30,27,24,100,98,95,0.00,40.00,35,18,65,0.00
2013-4-7,28,26,24,28,25,23,100,97,95,0.00,40.00,38,22,67,0.00
2013-4-8,29,26,22,28,25,21,98,97,96,0.00,40.00,20,16,29,0.00
2013-4-9,37,30,21,37,28,20,100,95,86,0.00,40.00,20,9,30,0.00
2013-4-10,38,31,21,35,30,21,100,97,83,0.00,40.00,33,21,58,0.00
2013-4-11,29,24,21,28,23,7,100,93,52,0.00,40.00,17,14,32,0.00
2013-4-12,33,26,22,25,14,-3,99,65,27,0.00,40.00,22,12,36,0.00
2013-4-13,23,18,13,23,18,12,98,97,95,0.00,40.00,31,21,62,0.00
2013-4-15,31,24,20,31,24,19,99,98,97,0.00,40.00,9,6,17,0.00
2013-4-16,32,23,18,31,22,17,98,97,93,0.00,40.00,13,5,21,0.00
2013-4-17,30,23,17,28,22,16,99,96,92,0.00,40.00,21,11,32,0.00
2013-4-18,34,29,23,34,29,23,100,99,98,0.00,40.00,23,19,35,0.00
2013-4-19,35,32,28,34,31,28,100,99,94,0.00,40.00,31,17,46,0.00
2013-4-20,33,28,25,32,28,25,100,98,97,0.00,40.00,27,19,46,0.00
2013-4-21,32,24,20,31,24,19,98,96,94,0.00,40.00,23,17,35,0.00
2013-4-22,34,25,18,28,21,15,96,87,68,0.00,40.00,23,12,36,0.00
2013-4-23,43,31,26,24,12,-6,72,47,21,0.00,40.00,22,14,27,0.00
2013-4-24,44,35,26,27,18,11,70,52,36,0.00,40.00,21,12,27,0.00
2013-4-25,45,38,33,32,28,21,80,68,57,0.00,40.00,24,19,33,0.00
2013-4-26,51,43,38,33,22,14,78,44,29,0.00,40.00,27,18,37,0.00
2013-4-27,40,36,30,34,24,16,100,67,38,0.00,40.00,25,18,45,0.00
2013-4-28,35,29,25,33,29,25,100,98,91,0.00,40.00,24,17,41,0.00
2013-4-29,30,23,16,30,23,15,100,98,96,0.00,40.00,33,25,65,0.00
2013-4-30,24,19,14,23,18,13,97,96,94,0.00,40.00,22,15,30,0.00
2013-5-1,48,31,16,29,21,13,98,71,38,0.00,40.00,20,9,22,0.00
2013-5-2,51,43,35,33,16,-4,75,37,18,0.00,40.00,17,7,20,0.00
2013-5-3,53,43,35,35,25,2,76,50,18,0.00,40.00,21,12,28,0.00
2013-5-4,53,42,36,30,26,22,69,54,33,0.00,40.00,33,20,52,0.00
2013-5-5,56,44,36,28,24,21,63,48,26,0.00,40.00,43,28,66,0.00
2013-5-6,59,49,42,31,28,22,59,45,27,0.00,40.00,21,14,32,0.00
2013-5-7,55,49,44,37,32,23,67,51,38,0.00,40.00,21,15,24,0.00
2013-5-8,55,49,44,39,32,20,76,52,32,0.00,40.00,18,14,27,0.00
2013-5-9,60,52,48,34,16,-4,44,25,9,0.00,40.00,16,12,18,0.00
2013-5-10,63,54,53,43,19,-100,63,31,21,0.00,40.00,14,7,25,0.00
2013-5-11,60,52,50,41,28,-100,70,47,32,0.00,40.00,22,11,33,0.00
2013-5-12,54,45,39,43,40,31,98,84,41,0.00,40.00,30,16,51,0.00
2013-5-13,39,34,23,38,32,21,100,90,74,0.00,40.00,31,16,58,0.00
2013-5-14,40,30,22,32,23,9,99,77,47,0.00,40.00,27,10,39,0.00
2013-5-15,44,36,31,36,29,21,100,75,52,0.00,40.00,20,7,23,0.00
2013-5-16,46,36,29,38,22,-100,100,87,55,0.00,40.00,12,7,18,0.00
2013-5-17,40,34,30,37,33,30,100,97,87,0.00,40.00,15,6,20,0.00
2013-5-18,34,32,29,33,31,29,100,99,94,0.00,40.00,21,11,32,0.00
2013-5-19,33,31,29,33,31,29,100,100,100,0.00,40.00,20,17,29,0.00
2013-5-20,53,42,30,37,31,26,98,68,42,0.00,40.00,27,18,35,0.00
2013-5-21,39,30,24,32,28,24,100,93,66,0.00,40.00,39,14,58,0.00
2013-5-22,32,26,21,30,25,21,99,96,91,0.00,40.00,20,12,35,0.00
2013-5-23,32,28,24,29,26,23,98,92,84,0.00,40.00,30,19,41,0.00
2013-5-24,38,31,26,33,29,26,99,92,76,0.00,40.00,20,6,31,0.00
2013-5-25,45,35,27,35,31,27,100,86,60,0.00,40.00,13,4,21,0.00
2013-5-26,44,37,32,37,33,30,99,87,70,0.00,40.00,16,9,30,0.00
2013-5-27,37,33,30,36,32,26,100,95,78,0.00,40.00,32,20,50,0.00
2013-5-28,40,35,31,36,33,30,100,93,79,0.00,40.00,14,7,22,0.00
2013-5-29,41,33,29,36,30,17,100,91,52,0.00,40.00,28,15,41,0.00
2013-5-30,37,30,26,33,30,26,100,98,85,0.00,40.00,17,8,28,0.00
2013-5-31,47,36,27,38,32,25,100,86,57,0.00,40.00,21,8,28,0.00
2013-6-1,50,41,36,39,31,21,100,71,49,0.00,40.00,21,8,32,0.00
2013-6-2,35,34,32,35,34,32,100,100,98,0.00,40.00,18,16,27,0.00
2013-6-3,47,39,32,37,33,28,100,81,64,0.00,40.00,17,13,24,0.00
2013-6-4,59,47,37,43,35,16,83,64,39,0.00,40.00,20,10,32,0.00
2013-6-5,56,50,45,44,40,32,89,69,50,0.00,40.00,17,7,20,0.00
2013-6-6,61,52,44,45,37,24,89,59,30,0.00,40.00,20,11,23,0.00
2013-6-7,50,46,39,45,34,23,92,67,37,0.00,40.00,28,19,41,0.00
2013-6-8,54,46,38,41,29,13,98,54,24,0.00,40.00,23,17,35,0.00
2013-6-9,44,37,31,38,34,26,100,90,74,0.00,40.00,21,14,28,0.00
2013-6-10,48,37,30,39,32,17,100,84,48,0.00,40.00,22,10,25,0.00
2013-6-11,36,32,27,34,31,27,100,98,87,0.00,40.00,15,11,29,0.00
2013-6-12,30,28,27,30,28,27,100,100,99,0.00,40.00,14,10,18,0.00
2013-6-13,33,32,32,33,32,32,100,100,100,0.00,40.00,20,18,31,0.00
2013-6-14,44,34,30,37,32,29,100,93,73,0.00,40.00,21,15,32,0.00
2013-6-15,58,50,39,45,36,24,86,61,39,0.00,40.00,23,11,36,0.00
2013-6-16,60,51,43,47,39,33,100,66,43,0.00,40.00,15,8,23,0.00
2013-6-17,56,47,38,42,38,35,100,73,47,0.00,40.00,15,8,32,0.00
2013-6-18,49,41,35,38,33,28,97,75,44,0.00,40.00,14,10,31,0.00
2013-11-10,37,35,33,36,35,33,100,99,95,0.00,40.00,18,14,32,0.00
2013-11-11,39,38,38,25,23,22,58,52,50,0.00,40.00,56,38,73,0.00
2013-11-12,35,33,32,35,33,32,100,99,95,0.00,40.00,24,10,52,0.00
2013-11-13,29,29,29,29,29,29,100,100,100,0.00,40.00,13,13,20,0.00
2013-11-14,23,23,23,23,23,23,100,100,99,0.00,40.00,22,20,28,0.00
2013-11-15,23,23,23,23,23,23,99,99,99,0.00,40.00,28,28,44,0.00
2013-11-16,20,16,19,19,-5,-100,97,78,97,0.00,40.00,36,33,61,0.00
2013-11-17,27,23,19,27,22,18,100,98,97,0.00,40.00,35,20,54,0.00
2013-11-18,30,29,29,30,29,29,100,100,100,0.00,40.00,17,13,25,0.00
2013-11-19,30,23,16,30,22,15,100,98,95,0.00,40.00,27,20,41,0.00
2013-11-25,42,42,42,6,6,6,22,22,22,0.00,40.00,15,15,23,0.00
2013-11-26,40,38,34,21,8,2,59,31,21,0.00,40.00,20,15,31,0.00
2013-11-27,37,36,35,32,22,16,89,57,44,0.00,40.00,15,14,23,0.00
2013-11-28,36,35,35,23,20,16,62,54,45,0.00,40.00,16,14,23,0.00
2013-11-29,33,33,33,32,31,30,96,91,87,0.00,40.00,24,22,31,0.00
2013-11-30,32,28,29,32,19,-100,100,91,100,0.00,40.00,20,18,36,0.00
2013-12-1,32,31,30,32,31,30,100,100,100,0.00,40.00,31,29,53,0.00
2013-12-2,19,15,11,18,14,10,97,96,95,0.00,40.00,38,32,74,0.00
2013-12-3,16,11,6,15,10,4,95,94,92,0.00,40.00,20,11,36,0.00
2013-12-4,8,8,8,6,6,6,93,92,92,0.00,40.00,6,4,9,0.00
2013-12-11,29,28,25,23,20,16,86,74,58,0.00,40.00,28,14,38,0.00
2013-12-12,29,29,29,20,17,14,68,61,53,0.00,40.00,22,19,39,0.00
2013-12-13,29,28,26,29,28,26,100,100,100,0.00,40.00,13,9,24,0.00
2013-12-14,35,23,35,20,-20,-100,54,36,54,0.00,40.00,28,18,50,0.00
2013-12-15,32,28,25,29,26,22,88,88,88,0.00,40.00,22,20,35,0.00
2013-12-16,41,35,25,23,20,18,75,56,44,0.00,40.00,21,17,43,0.00
2013-12-17,40,38,36,20,18,16,44,44,44,0.00,40.00,14,10,20,0.00
2013-12-18,26,24,22,25,23,22,98,96,94,0.00,40.00,28,25,47,0.00
2013-12-19,18,13,10,9,6,1,94,77,47,0.00,40.00,18,14,25,0.00
2013-12-20,29,27,24,29,27,24,100,100,100,0.00,40.00,35,32,55,0.00
2013-12-21,26,26,25,26,26,25,100,100,100,0.00,40.00,23,22,40,0.00
2013-12-31,29,26,23,29,21,14,100,82,59,0.00,40.00,29,23,48,0.00
2014-1-1,36,32,28,30,16,10,81,51,36,0.00,40.00,20,12,22,0.00
2014-1-2,36,34,33,32,30,29,98,87,76,0.00,40.00,9,9,23,0.00